Flag for Switzerland Weather past 2 weeks in Thun, Bern, Switzerland

Now
63 °F

Fog.


Feels Like: 63 °F
Forecast: 61 / 75 °F
Wind: 2 mph from Southeast

Location: Bern / Belp

Current Time: Jul 30, 2014 at 9:41:55 PM

Latest Report: Jul 30, 2014 at 9:20 PM


Visibility: 5 mi

Pressure: 29.98 "Hg

Humidity: 100%

Dew point: 63 °F

Location of ThunLocation

Historic Weather in Thun — Graph

°F

Thun temperature yesterday

Maximum temperature yesterday: 68 °F (at 1:50 PM)
Minimum temperature yesterday: 57 °F (at 4:50 AM)
Average temperature yesterday: 62 °F

Past Weeks' High & Low Weather Summary

 TemperatureHumidityPressure
High88 °F (Jul 18, 2:50 PM)100% (Jul 16, 4:20 AM)30.21 "Hg (Jul 16, 4:20 AM)
Low52 °F (Jul 16, 5:20 AM)29% (Jul 17, 6:20 PM)29.83 "Hg (Jul 28, 2:50 PM)
Average66 °F80%29.99 "Hg
* Reported Jul 15 7:20 PM — Jul 30 7:50 PM, Thun, Weather by CustomWeather, © 2014

Note: Actual official high and low records may vary slightly from our data, if they occured in-between our weather recording intervals... More about our weather records

Advertising

Thun weather history for previous 24 hours

 ConditionsComfort  
Time TempWeatherWind HumidityBarometerVisibility
7:50 PM
Jul 30
63 °FBroken clouds.3 mph100%29.95 "Hg5 mi
7:20 PM64 °FScattered showers. Broken clouds.2 mph94%29.95 "HgN/A
6:50 PM64 °FRain showers. Broken clouds.No wind94%29.95 "Hg3 mi
6:20 PM64 °FSprinkles. Broken clouds.5 mph94%29.95 "Hg4 mi
5:50 PM64 °FSprinkles. Broken clouds.2 mph94%29.92 "HgN/A
5:20 PM68 °FBroken clouds.5 mph78%29.92 "HgN/A
4:50 PM70 °FBroken clouds.5 mph83%29.92 "HgN/A
4:20 PM68 °FBroken clouds.3 mph83%29.92 "HgN/A
3:50 PM68 °FPartly sunny.6 mph83%29.92 "HgN/A
3:20 PM64 °FPartly sunny.2 mph88%29.92 "HgN/A
2:50 PM64 °FBroken clouds.2 mph88%29.92 "HgN/A
2:20 PM64 °FPartly sunny.2 mph88%29.92 "HgN/A
1:50 PM63 °FPartly sunny.2 mph88%29.92 "HgN/A
1:20 PM63 °FCloudy.2 mph88%29.92 "HgN/A
12:50 PM63 °FCloudy.2 mph88%29.92 "HgN/A
12:20 PM61 °FDrizzle. Broken clouds.1 mph94%29.92 "Hg3 mi
11:50 AM61 °FBroken clouds.3 mph94%29.89 "Hg4 mi
11:20 AM61 °FDrizzle. Broken clouds.2 mph94%29.89 "Hg2 mi
10:50 AM61 °FDrizzle. Mostly cloudy.2 mph94%29.89 "Hg2 mi
10:20 AM59 °FLight rain. Mostly cloudy.3 mph100%29.89 "Hg2 mi
9:50 AM59 °FRain. Mostly cloudy.2 mph100%29.89 "Hg2 mi
9:20 AM59 °FRain. More clouds than sun.5 mph100%29.89 "Hg2 mi
8:50 AM59 °FLight rain. More clouds than sun.2 mph100%29.86 "Hg3 mi
8:20 AM59 °FRain. Low clouds.1 mph94%29.86 "Hg3 mi
7:50 AM59 °FLight rain. Low clouds.1 mph94%29.86 "Hg5 mi
7:20 AM59 °FDrizzle. Low clouds.2 mph94%29.86 "HgN/A
6:50 AM57 °FOvercast.1 mph100%29.86 "HgN/A
6:20 AM57 °FOvercast.2 mph100%29.86 "HgN/A
5:50 AM57 °FPartly cloudy.3 mph100%29.86 "HgN/A
5:20 AM57 °FLow clouds.2 mph100%29.86 "HgN/A
4:50 AM57 °FPartly cloudy.2 mph94%29.86 "HgN/A
4:20 AM57 °FPassing clouds.2 mph94%29.86 "HgN/A
3:50 AM59 °FPassing clouds.1 mph94%29.86 "HgN/A
3:20 AM59 °FOvercast.No wind94%29.86 "HgN/A
2:50 AM59 °FMostly cloudy.1 mph94%29.89 "HgN/A
2:20 AM59 °FPartly cloudy.1 mph94%29.89 "HgN/A
1:50 AM59 °FPartly cloudy.2 mph94%29.86 "HgN/A
1:20 AM59 °FPassing clouds.3 mph94%29.86 "HgN/A
12:50 AM59 °FPassing clouds.3 mph94%29.86 "HgN/A
12:20 AM61 °FPartly cloudy.3 mph88%29.86 "HgN/A
11:50 PM
Jul 29
61 °FPassing clouds.5 mph83%29.89 "HgN/A
11:20 PM63 °FPartly cloudy.5 mph77%29.86 "HgN/A
10:50 PM63 °FOvercast.5 mph83%29.89 "HgN/A
10:20 PM63 °FMostly cloudy.6 mph77%29.86 "HgN/A
9:50 PM63 °FPartly sunny.5 mph83%29.86 "HgN/A
9:20 PM63 °FPartly sunny.3 mph88%29.86 "HgN/A
Weather by CustomWeather, © 2014

See weather overviewHow to use our weather pages